Left ArrowRight Arrow

Hourly Observations for May 28, 2024

Temp ( °F °C ) Dew Point ( °F °C ) Humidity (%) Winds ( mph kmh ) Pressure ( in mb ) Visibility ( mi km ) Precip ( " mm )
12:56 am 00:56 undefined 49 9.4 40 4.4 71 71 W 7 11 30.11 1020 N/A 0.00 0.00
1:56 am 01:56 undefined 49 9.4 40 4.4 71 71 WSW 6 9 30.12 1020 N/A 0.00 0.00
2:56 am 02:56 undefined 48 8.9 39 3.9 71 71 W 7 11 30.12 1020 N/A 0.00 0.00
3:56 am 03:56 undefined 49 9.4 40 4.4 71 71 ENE 6 9 30.14 1021 N/A 0.00 0.00
4:56 am 04:56 undefined 46 7.8 39 3.9 76 76 WSW 6 9 30.14 1021 N/A 0.00 0.00
5:56 am 05:56 undefined 47 8.3 38 3.3 71 71 WNW 6 9 30.16 1021 N/A 0.00 0.00
6:56 am 06:56 undefined 53 11.7 40 4.4 61 61 Calm 30.16 1021 N/A 0.00 0.00
7:56 am 07:56 undefined 58 14.4 43 6.1 57 57 VRB 3 6 30.17 1022 N/A 0.00 0.00
8:56 am 08:56 undefined 62 16.7 46 7.8 56 56 ENE 6 9 30.18 1022 N/A 0.00 0.00
9:56 am 09:56 undefined 67 19.4 47 8.3 49 49 ESE 7 11 30.16 1022 N/A 0.00 0.00
10:56 am 10:56 undefined 69 20.6 45 7.2 42 42 ENE 7 11 30.16 1021 N/A 0.00 0.00
11:56 am 11:56 undefined 71 21.7 41 5 34 34 VRB 5 7 30.14 1021 N/A 0.00 0.00
12:56 pm 12:56 undefined 72 22.2 40 4.4 31 31 WSW 9 15 30.13 1020 N/A 0.00 0.00
1:56 pm 13:56 undefined 75 23.9 43 6.1 32 32 VRB 3 6 30.11 1020 N/A 0.00 0.00
2:56 pm 14:56 undefined 74 23.3 42 5.6 32 32 E 8 13 30.10 1019 N/A 0.00 0.00
3:56 pm 15:56 undefined 75 23.9 44 6.7 33 33 ESE 12 19 30.08 1019 N/A 0.00 0.00
4:56 pm 16:56 undefined 76 24.4 45 7.2 33 33 SE 14 22 30.07 1018 N/A 0.00 0.00
5:56 pm 17:56 undefined 74 23.3 44 6.7 34 34 SE 12 19 30.05 1018 N/A 0.00 0.00
6:56 pm 18:56 undefined 73 22.8 43 6.1 34 34 SE 13 20 30.04 1017 N/A 0.00 0.00
7:56 pm 19:56 undefined 67 19.4 47 8.3 49 49 ESE 10 17 30.04 1017 N/A 0.00 0.00
8:56 pm 20:56 undefined 62 16.7 47 8.3 58 58 ESE 14 22 30.05 1018 N/A 0.00 0.00
9:56 pm 21:56 undefined 59 15 46 7.8 62 62 ESE 13 20 30.05 1018 N/A 0.00 0.00
10:56 pm 22:56 undefined 57 13.9 45 7.2 64 64 ESE 12 19 30.04 1017 N/A 0.00 0.00
11:56 pm 23:56 undefined 57 13.9 45 7.2 64 64 SE 17 28 30.03 1017 N/A 0.00 0.00

Powered by Vaisala Xweather